SCOUT A DEB, 2889

Orbit data source: Space-Track

SCOUT A DEB, 2889 is space debris in LEO originally from a launch on Fri, 28 Jan 1966 UTC launched from the Air Force Western Test Range (AFWTR). Debris objects in space refer to the collection of defunct objects orbiting the Earth. Examples of debris include non-operational satellites, rocket bodies, and fragments generated from explosions, collisions, or faulty payload assembly.

Loading next visibility...
SCOUT A DEB details
Identifier
2889, 1966-005E
Orbit
LEO
Last TLE update1 day ago
Origin
Flag of USUSN NAVAIR (US)
ManufacturerUnknown
MissionSpacecraft
Bus & MotorUnknown
MassUnknown
Launch date (UTC)
1966-01-28 (59 years ago)
Launch vehicleUnknown
Launch site
Air Force Western Test Range (AFWTR)
Object type
Payload
Rocket body
Debris
Shape & HBRUnknown
Radar Cross SectionSmall (<0.1 m²)

Expand to show TLE details & history

TLE from 1 day ago
0 SCOUT A DEB
1 02889U 66005E   24355.52749980  .00000138  00000-0  30654-3 0  9990
2 02889  89.5455 181.4182 0166595 203.2538 213.6320 13.17897310764784
Epoch: 2024-12-20T12:39Z
Definitive object data (Epoch: 2024-12-20T12:39:35.982Z)
Latitude55.9341°
Longitude-97.40462°
Altitude1,307.805 km
Speed7.157 km/s
True Right ascension12h 08m 20s
True Declination55° 47' 09"
Sunlit
Object was in daylight at TLE epoch
Visualization TLE readout
Latitude57.83669°
Longitude81.16404°
Altitude1,174.903 km
Speed7.285 km/s
Apparent Right ascension23h 51m 55s
Apparent Declination14° 27' 30"
Sunlit
Object is in daylight
Visualization observer readout
Local Sidereal Time11:43:07
Azimuth357.38° N
Elevation-35.587°
Doppler factor1
Orbital elements
Apogee altitude1,315.937 km
Perigee altitude1,063.779 km
Semi-major axis7,567.995 km
Eccentricity0.0166595
Inclination89.5455°
RAAN181.4182°
Arg. of periapsis203.2538°
True anomaly212.59276°
Mean anomaly213.632°
Eccentric anomaly213.11059°
Mean motion3.29664 °/min
BSTAR0.00030654
Orbital period109.2 mins
Loading maneuver chart data...
Loading historical data...
Loading historical data...
Loading historical data...
Loading historical data...
Loading historical data...
Loading historical data...
Loading historical data...

SCOUT A DEB Visibility forecast

Observer location: undefined°, undefined

Span
Click to sort rows by Start time (UTC) header in descending order
Start Az.
Max El. time (UTC)
Max El. Az.
Max El.
End time (UTC)
End Az.
14 mins2024-12-21 13:58:16.793Z211.8° SW2024-12-21 14:05:16.793Z275.571° WNW30.991°2024-12-21 14:12:16.793Z341.79° N
9 mins2024-12-21 23:38:16.793Z36.618° NE2024-12-21 23:42:16.793Z79.67° E22.586°2024-12-21 23:47:16.793Z129.993° SE
11 mins2024-12-22 01:26:16.793Z349.049° N2024-12-22 01:31:16.793Z292.334° WNW38.526°2024-12-22 01:37:16.793Z206.006° SW
12 mins2024-12-22 11:52:16.793Z132.426° SE2024-12-22 11:57:16.793Z83.558° E29.782°2024-12-22 12:04:16.793Z16.454° NNE
|